Wind_Speed
15 14 13 12 11 11 11 11 10 11 10 9 9 9 9 9 9 9 9 9 8 8 8 8 8 7 7 7 7 7 8 8 7 7 6 6 7 7 7 6 7 8
16 15 14 14 13 12 12 12 11 11 10 10 10 10 9 9 9 9 9 9 8 8 8 7 7 7 7 7 7 7 7 7 7 7 7 7 7 7 7 7 8 9
17 16 15 14 13 12 12 12 12 11 11 11 11 10 10 10 10 10 10 9 9 8 8 7 7 7 7 7 7 7 7 7 8 8 8 9 8 8 8 8 10 10
17 16 15 14 14 13 13 13 13 12 12 12 11 11 11 11 11 10 10 10 10 9 8 8 8 7 7 7 7 7 7 8 8 8 8 9 9 9 9 10 10 10
16 16 15 15 15 15 15 14 13 13 13 12 12 12 12 11 11 10 10 10 10 9 9 8 8 8 8 8 8 7 8 8 8 7 8 8 8 9 9 9 9 9
16 16 16 16 16 16 16 15 14 13 13 13 12 12 12 12 11 11 11 10 10 10 9 9 9 9 9 9 9 8 8 8 7 7 7 7 7 7 8 8 8 9
17 17 16 17 17 16 16 15 15 14 14 13 13 12 12 12 12 12 11 11 10 10 10 10 9 9 9 9 9 8 7 7 7 8 7 7 7 8 8 8 8 9
17 17 17 18 18 17 16 16 15 14 14 14 13 13 13 13 12 12 12 12 12 11 11 10 10 10 9 9 9 8 7 7 8 8 8 7 8 8 9 9 9 9
19 19 19 19 19 18 17 16 16 15 15 15 14 14 14 14 13 13 13 13 13 12 12 11 10 10 9 9 9 8 7 8 8 9 9 9 9 9 9 9 9 9
20 20 20 20 19 18 18 17 17 17 17 16 16 16 15 15 15 15 15 15 16 16 15 15 15 13 11 10 9 8 8 9 9 9 9 10 10 10 10 9 9 10
21 21 21 20 19 19 18 18 18 18 18 17 17 17 16 16 16 18 20 20 18 16 14 14 13 11 11 11 11 10 10 9 10 9 10 10 10 10 10 10 10 11
22 22 21 20 20 19 19 19 19 18 18 17 17 17 17 18 19 20 20 16 13 11 10 10 10 9 10 11 11 10 10 10 10 11 11 11 10 10 11 10 11 12
22 21 21 20 20 19 19 19 19 18 18 18 17 17 18 19 19 18 16 13 10 10 9 8 9 10 10 11 11 10 10 10 11 11 11 11 11 11 12 12 12 13
22 21 21 21 20 19 20 20 20 19 18 18 18 19 19 18 17 16 15 13 12 11 9 8 8 9 10 10 10 10 11 11 11 12 12 13 13 13 13 13 13 13
21 22 22 21 21 21 21 20 20 20 19 19 20 20 20 19 17 16 15 14 12 11 9 9 9 9 10 10 10 11 13 12 12 13 13 14 15 14 14 13 13 13
22 22 23 23 23 23 21 21 21 20 20 20 21 21 19 18 17 15 14 14 13 11 10 11 11 10 9 10 10 12 13 13 13 14 14 15 15 14 14 13 13 13
25 24 25 25 24 23 21 21 21 21 21 21 22 21 19 18 17 15 14 14 13 13 12 12 12 11 11 11 12 13 14 14 14 15 16 16 15 15 15 15 15 14
27 25 25 25 24 23 22 21 21 21 21 21 21 21 20 20 19 18 17 16 17 16 15 14 14 13 13 13 15 16 16 16 16 17 17 17 16 16 16 16 16 16
27 26 25 25 25 24 23 23 23 23 22 22 22 22 22 22 22 21 20 20 20 19 18 17 17 16 16 17 17 18 18 18 19 20 19 19 18 18 18 17 18 18
27 26 26 25 25 25 25 25 24 24 24 24 25 25 24 25 25 24 23 22 21 21 21 21 21 20 19 19 19 19 20 21 23 23 22 22 21 21 20 20 20 21
27 27 27 26 25 25 26 26 26 25 25 26 26 26 26 26 25 24 24 23 22 23 23 24 23 23 23 23 23 23 24 24 24 24 24 24 24 24 23 23 23 23
27 28 28 27 26 26 26 27 28 27 27 27 27 26 26 25 25 25 24 24 24 25 26 25 25 25 25 25 26 25 26 27 26 26 26 26 26 26 26 25 24 23
29 28 29 28 27 26 26 27 29 29 28 28 28 28 28 26 25 26 26 27 27 28 28 28 28 28 28 28 28 28 28 28 28 27 27 28 28 28 26 25 23 22
29 28 28 27 26 27 28 29 30 30 29 30 32 32 30 26 25 27 29 30 32 33 33 32 31 30 30 29 30 31 30 31 31 30 30 31 30 27 25 24 23 22
29 28 28 26 24 25 27 29 31 32 32 32 32 31 27 24 25 28 29 31 34 35 36 37 36 35 34 33 33 33 33 34 34 32 33 34 31 26 23 23 22 21
29 28 28 28 26 25 26 28 32 34 33 29 27 27 27 26 27 29 31 35 39 39 38 37 38 38 37 36 35 35 36 39 39 37 36 34 27 23 23 23 21 20
Wind_Direction
207 204 200 202 203 200 199 199 198 198 197 192 191 190 188 189 190 188 190 193 191 193 196 195 199 199 198 199 199 204 209 215 219 218 225 235 239 245 251 256 258 258
208 206 203 204 204 204 203 204 203 201 197 196 196 195 192 192 192 192 194 195 195 198 198 197 201 204 206 206 206 211 213 217 222 223 228 234 237 241 248 254 256 256
208 209 209 209 207 206 207 208 207 204 201 201 198 196 194 194 197 198 198 198 198 200 202 203 207 210 212 213 214 219 222 226 229 229 232 236 240 244 248 253 256 260
209 211 213 213 212 211 210 210 208 207 208 206 203 201 198 196 197 198 199 200 200 200 201 204 211 215 217 221 222 223 226 232 234 233 235 240 246 250 252 255 260 268
209 213 214 213 214 214 213 212 210 209 210 209 208 209 206 201 198 199 202 204 201 202 204 207 213 217 220 225 231 234 233 236 239 239 240 246 252 255 258 259 261 265
210 213 215 215 216 217 215 214 215 213 212 212 213 213 211 207 204 205 208 208 206 207 211 213 217 220 222 224 229 234 236 238 240 236 237 242 247 250 250 249 250 254
212 215 217 219 220 221 219 217 218 216 216 218 217 216 215 211 210 213 216 215 212 212 216 220 222 223 226 228 228 229 230 231 231 229 231 235 238 243 244 243 245 252
214 216 219 221 224 224 222 221 221 218 219 221 221 220 219 217 217 220 224 224 221 218 216 218 220 221 224 226 227 227 226 225 225 225 228 231 235 243 249 251 251 254
215 216 219 222 225 226 224 223 223 223 222 222 223 224 224 225 225 225 227 229 230 227 220 218 221 223 229 232 230 226 224 226 226 225 227 230 237 245 251 254 256 259
216 217 220 222 225 227 225 223 224 226 227 225 226 228 228 228 230 232 232 229 229 227 219 217 217 214 218 230 233 230 226 229 232 230 231 234 240 248 253 255 259 263
217 218 220 221 223 226 225 224 225 227 230 229 229 231 233 232 233 234 232 230 230 230 230 234 235 225 220 224 226 224 221 227 236 235 235 238 241 247 252 255 260 265
217 218 220 221 222 223 223 224 225 228 232 233 233 235 238 239 240 241 243 247 252 256 263 272 277 270 253 244 244 239 226 222 234 238 238 239 240 244 247 250 255 261
218 217 218 220 221 222 223 225 227 228 232 234 235 238 240 243 247 254 264 272 271 265 267 273 280 283 273 260 256 250 235 226 232 239 241 243 242 242 244 247 254 263
219 217 216 217 219 222 224 226 228 230 232 233 235 238 241 244 250 258 265 270 267 264 264 263 273 287 281 263 250 244 239 235 235 238 244 247 247 248 249 253 259 265
219 218 217 216 217 220 224 225 227 230 231 232 234 238 242 247 250 253 258 262 262 260 259 261 268 276 270 259 250 248 249 248 245 245 248 249 251 255 257 260 261 264
218 219 219 218 218 220 223 224 227 230 231 232 235 238 242 248 251 252 255 260 259 254 254 261 266 267 263 260 257 256 257 255 252 253 254 255 259 262 264 265 265 267
215 217 218 218 219 220 222 225 229 233 235 237 240 242 245 248 248 247 251 256 255 250 249 255 260 258 256 259 260 260 260 257 254 255 257 258 260 261 263 266 267 269
215 217 220 221 221 222 224 227 231 236 239 241 244 246 248 250 251 249 249 252 252 251 251 255 257 253 252 258 261 260 259 258 258 259 259 258 258 259 262 266 269 273
217 217 221 225 227 226 226 227 230 235 239 243 246 248 250 252 254 253 251 251 253 255 257 258 256 252 252 256 258 257 256 258 260 262 262 261 260 260 261 262 266 271
222 221 221 225 229 231 232 231 231 233 237 241 245 247 249 251 253 256 257 257 258 261 262 262 260 257 256 255 254 254 255 258 261 261 261 261 261 260 257 257 262 268
225 227 225 226 228 232 234 235 234 234 235 239 244 248 251 253 255 258 260 262 264 264 264 263 262 260 257 255 254 255 257 260 261 260 260 260 260 258 256 257 263 268
223 227 229 227 225 228 232 235 235 235 235 238 243 246 249 253 256 258 260 261 262 262 261 261 261 261 260 258 257 256 257 258 258 258 258 258 257 256 257 260 264 265
220 223 227 228 226 229 234 237 237 238 239 241 243 244 245 248 253 255 257 259 259 258 258 257 257 258 259 259 259 258 257 257 256 256 256 255 254 254 255 259 261 262
219 220 223 228 233 237 240 241 240 241 244 245 244 243 242 244 248 253 257 260 259 258 257 257 256 256 256 257 259 259 258 258 257 257 256 254 252 250 251 253 256 260
217 218 221 228 239 242 241 240 242 243 244 246 248 251 253 253 255 258 260 261 260 258 256 255 255 255 255 256 257 258 260 261 258 256 256 254 248 243 245 249 253 259
215 217 219 226 236 241 240 240 241 243 245 247 252 259 263 262 262 262 263 264 262 259 256 255 255 256 256 256 256 258 260 261 258 255 254 250 239 235 244 251 254 259
Height
3216 3217 3218 3218 3219 3220 3221 3221 3222 3222 3223 3224 3224 3225 3225 3225 3226 3226 3227 3227 3227 3228 3228 3228 3228 3229 3229 3229 3230 3230 3230 3229 3229 3229 3229 3229 3229 3229 3228 3228 3228 3228
3215 3216 3217 3218 3219 3220 3220 3221 3222 3222 3223 3223 3224 3224 3224 3225 3225 3226 3226 3226 3227 3227 3227 3228 3228 3228 3228 3228 3229 3229 3229 3229 3229 3228 3228 3228 3228 3228 3227 3227 3227 3227
3214 3216 3217 3218 3218 3219 3220 3221 3221 3222 3222 3223 3223 3224 3224 3224 3225 3225 3226 3226 3226 3226 3227 3227 3227 3227 3227 3227 3228 3228 3228 3228 3228 3228 3228 3227 3227 3227 3227 3226 3226 3226
3214 3215 3216 3217 3218 3219 3219 3220 3221 3221 3222 3222 3223 3223 3223 3224 3224 3224 3225 3225 3225 3226 3226 3226 3226 3226 3226 3226 3226 3227 3227 3227 3227 3227 3227 3227 3227 3226 3226 3226 3225 3225
3213 3214 3215 3216 3217 3218 3219 3219 3220 3221 3221 3222 3222 3222 3223 3223 3223 3224 3224 3224 3224 3224 3225 3225 3225 3225 3225 3226 3226 3226 3226 3226 3226 3226 3226 3226 3226 3226 3225 3225 3225 3224
3212 3214 3215 3216 3216 3217 3218 3219 3220 3220 3221 3221 3221 3222 3222 3222 3223 3223 3223 3223 3223 3223 3223 3224 3224 3224 3224 3225 3225 3225 3225 3225 3225 3225 3225 3225 3225 3225 3224 3224 3223 3223
3211 3212 3214 3214 3215 3216 3217 3218 3218 3219 3220 3220 3220 3221 3221 3221 3221 3221 3221 3222 3222 3222 3222 3223 3223 3223 3224 3224 3224 3224 3224 3224 3224 3224 3224 3224 3224 3223 3223 3223 3222 3222
3210 3211 3212 3213 3214 3215 3215 3216 3217 3218 3218 3218 3219 3219 3219 3219 3220 3220 3220 3220 3220 3220 3221 3221 3222 3222 3222 3222 3223 3223 3223 3223 3223 3223 3223 3223 3223 3222 3222 3222 3221 3221
3208 3209 3210 3211 3212 3213 3214 3215 3215 3216 3216 3216 3217 3217 3217 3217 3217 3217 3217 3218 3218 3219 3219 3220 3220 3221 3221 3222 3222 3222 3222 3222 3222 3222 3222 3221 3221 3221 3221 3221 3221 3220
3206 3207 3208 3209 3210 3211 3212 3213 3213 3214 3214 3215 3215 3215 3215 3215 3216 3216 3216 3216 3215 3215 3215 3216 3217 3217 3218 3220 3221 3221 3221 3221 3221 3221 3221 3221 3220 3220 3220 3220 3220 3220
3203 3204 3206 3207 3208 3209 3210 3211 3212 3212 3212 3213 3213 3213 3213 3214 3214 3213 3212 3211 3211 3213 3215 3216 3217 3217 3218 3218 3220 3220 3219 3220 3220 3220 3219 3219 3219 3219 3219 3219 3219 3218
3201 3202 3203 3205 3206 3207 3208 3209 3209 3210 3210 3211 3211 3211 3212 3212 3211 3211 3211 3212 3214 3217 3218 3219 3220 3220 3220 3219 3219 3219 3218 3218 3218 3218 3218 3218 3218 3218 3217 3217 3217 3217
3199 3200 3201 3203 3204 3205 3206 3207 3207 3208 3209 3209 3209 3209 3210 3210 3210 3211 3213 3215 3216 3216 3216 3217 3217 3218 3218 3217 3217 3217 3217 3217 3217 3217 3217 3217 3217 3216 3216 3216 3216 3216
3197 3198 3200 3201 3202 3203 3203 3204 3205 3206 3207 3207 3207 3207 3208 3209 3209 3211 3212 3213 3214 3214 3214 3214 3214 3215 3215 3215 3215 3215 3215 3215 3215 3215 3215 3215 3215 3215 3215 3215 3215 3215
3194 3196 3197 3198 3199 3200 3201 3202 3203 3204 3205 3205 3205 3205 3206 3207 3209 3210 3210 3211 3212 3212 3212 3212 3212 3212 3212 3213 3213 3213 3213 3213 3213 3213 3213 3213 3213 3214 3214 3214 3214 3214
3192 3193 3194 3195 3196 3197 3198 3200 3201 3202 3203 3203 3203 3204 3205 3206 3207 3208 3208 3209 3210 3210 3210 3210 3210 3210 3211 3210 3211 3211 3211 3211 3212 3212 3212 3212 3212 3212 3213 3213 3212 3212
3188 3189 3191 3192 3194 3195 3196 3198 3199 3200 3200 3200 3201 3202 3203 3204 3205 3206 3207 3207 3208 3208 3208 3208 3208 3209 3209 3209 3209 3209 3209 3209 3210 3210 3210 3210 3210 3211 3211 3211 3211 3210
3185 3186 3188 3190 3192 3193 3195 3196 3197 3197 3198 3198 3198 3200 3201 3201 3202 3204 3204 3205 3205 3206 3206 3207 3207 3207 3207 3207 3207 3207 3207 3207 3207 3207 3208 3208 3208 3208 3208 3208 3208 3208
3183 3184 3186 3188 3190 3192 3193 3193 3194 3195 3195 3196 3196 3197 3197 3198 3199 3200 3201 3202 3203 3204 3204 3205 3205 3205 3205 3205 3205 3205 3205 3205 3205 3205 3206 3206 3206 3206 3206 3206 3206 3205
3181 3182 3184 3186 3188 3189 3190 3191 3192 3192 3192 3193 3193 3193 3194 3195 3196 3197 3199 3200 3201 3202 3202 3202 3202 3202 3202 3202 3202 3202 3202 3202 3202 3203 3203 3203 3203 3203 3203 3203 3203 3202
3178 3180 3181 3183 3184 3186 3187 3188 3189 3189 3190 3190 3190 3191 3192 3192 3193 3194 3196 3197 3198 3199 3199 3199 3199 3199 3199 3199 3199 3199 3199 3199 3199 3200 3200 3200 3200 3200 3200 3200 3199 3199
3174 3176 3178 3180 3181 3182 3183 3185 3186 3186 3187 3187 3188 3189 3189 3189 3190 3190 3191 3193 3194 3194 3194 3195 3195 3195 3196 3196 3195 3195 3195 3195 3195 3196 3196 3197 3196 3196 3196 3196 3196 3196
3170 3172 3175 3177 3178 3179 3181 3182 3182 3183 3184 3185 3185 3184 3184 3186 3186 3186 3187 3188 3188 3189 3189 3190 3190 3191 3191 3191 3192 3191 3191 3191 3191 3191 3192 3192 3192 3192 3193 3194 3193 3193
3166 3168 3171 3173 3175 3177 3178 3178 3179 3180 3182 3182 3181 3179 3181 3184 3185 3184 3184 3184 3184 3184 3185 3185 3186 3186 3186 3187 3187 3187 3187 3186 3187 3187 3187 3187 3187 3189 3190 3191 3190 3190
3163 3165 3167 3170 3171 3173 3174 3175 3175 3175 3176 3178 3180 3179 3181 3184 3183 3181 3181 3181 3180 3180 3180 3180 3181 3181 3182 3182 3183 3183 3183 3182 3182 3183 3183 3182 3183 3185 3187 3187 3187 3188
3159 3162 3164 3166 3167 3168 3170 3170 3170 3169 3171 3176 3180 3180 3180 3181 3180 3178 3178 3177 3175 3175 3176 3176 3176 3176 3177 3178 3178 3179 3178 3177 3176 3177 3179 3179 3180 3183 3184 3184 3185 3185